{"data":{"norad_id":67664,"epoch":"2026-05-25T01:38:16.478592Z","epoch_age_seconds":75973,"freshness":"FRESH","line1":"1 67664U 26022S   26145.06824628  .00017974  00000+0  55765-3 0  9993","line2":"2 67664  97.2841 178.2590 0001434  78.1070 282.0333 15.33449717 17271","mean_motion":15.33449717,"eccentricity":0.0001434,"inclination_deg":97.2841,"raan_deg":178.259,"arg_perigee_deg":78.107,"mean_anomaly_deg":282.0333,"bstar":0.00055765,"rev_number":1727,"period_min":93.905915794694,"perigee_km":464.54775831632,"apogee_km":466.51052176528,"semimajor_km":6843.6661400408,"source":"CELESTRAK","updated_at":"2026-05-25T13:38:21.660166Z"}}